tititudorancea.com
Station Historical Data
Daily Summary for May 31, 2018 Units:  Metric    English   Both
« Previous Day
Next Day »
Daily Weekly Monthly Yearly Custom
  High: Low: Average:
Temperature: -17.8 °C 3.5 °C 8.6 °C
Dew Point: -17.8 °C 2.3 °C 5.1 °C
Humidity: Humidity % 64 % 79 %
Wind Speed: 0 km/h 0 km/h 14.8 km/h
Wind Gust: 0 km/h - -
Wind:- - SW
Pressure: 0 hPa 1023.2 hPa -
Precipitation: 0 mm    
Historical Graphs
 
 
Ararat weather Find more about Weather in Ararat, AU


 



 


Tabular Data for May 31, 2018
Time Temperature Dew Point Pressure Wind Wind Speed Wind Gust Humidity Rainfall Rate (Hourly)
-17.8 °C -17.8 °C 0 hPa Calm     Humidity % 0 mm
00:04 9.8 °C 5.6 °C 1023.6 hPa SW 27.8 km/h 16.3 km/h 75 % 0 mm
00:09 9.8 °C 5.6 °C 1023.2 hPa SSW 31.5 km/h 13.8 km/h 75 % 0 mm
00:14 9.7 °C 5.5 °C 1023.6 hPa SW 31.5 km/h 22.2 km/h 75 % 0 mm
00:19 9.7 °C 5.4 °C 1023.2 hPa SW 20.4 km/h 11.1 km/h 75 % 0 mm
00:24 9.6 °C 5.6 °C 1023.6 hPa SW 27.8 km/h 16.4 km/h 76 % 0 mm
00:29 9.6 °C 5.6 °C 1023.6 hPa SW 20.9 km/h 13 km/h 76 % 0 mm
00:34 9.4 °C 5.6 °C 1023.6 hPa SW 18.5 km/h 14 km/h 77 % 0 mm
00:39 9.4 °C 5.7 °C 1023.6 hPa SW 24.1 km/h 18.2 km/h 78 % 0 mm
00:44 9.3 °C 5.8 °C 1023.6 hPa SW 14.8 km/h 13.4 km/h 79 % 0 mm
00:49 9.1 °C 5.7 °C 1023.6 hPa SW 30.6 km/h 21.4 km/h 79 % 0 mm
00:54 9.1 °C 5.8 °C 1023.6 hPa SW 20.4 km/h 12.7 km/h 80 % 0 mm
00:59 8.9 °C 5.7 °C 1023.6 hPa SW 27.8 km/h 16.7 km/h 80 % 0 mm
01:04 8.9 °C 5.7 °C 1023.6 hPa SW 18.5 km/h 20.8 km/h 80 % 0 mm
01:09 8.9 °C 5.6 °C 1023.9 hPa North 25.9 km/h 16.1 km/h 80 % 0 mm
01:14 8.9 °C 5.7 °C 1023.9 hPa SW 25.9 km/h 13.8 km/h 80 % 0 mm
01:19 9 °C 5.7 °C 1023.9 hPa SW 31.5 km/h 20.1 km/h 80 % 0 mm
01:24 9.1 °C 5.8 °C 1023.9 hPa SSW 14.8 km/h 12.4 km/h 80 % 0 mm
01:29 8.9 °C 5.7 °C 1023.9 hPa SSW 32.2 km/h 13.7 km/h 80 % 0 mm
01:34 8.9 °C 5.8 °C 1023.9 hPa North 27.8 km/h 14.3 km/h 81 % 0 mm
01:39 8.9 °C 6 °C 1024.3 hPa SSW 20.9 km/h 16.6 km/h 82 % 0 mm
01:44 8.6 °C 6.1 °C 1024.3 hPa SW 25.9 km/h 16.7 km/h 84 % 0 mm
01:49 8.4 °C 6 °C 1024.3 hPa SW 24.1 km/h 13.8 km/h 85 % 0 mm
01:54 8.4 °C 6.1 °C 1024.3 hPa SSW 24.1 km/h 22.9 km/h 85 % 0 mm
01:59 8.5 °C 5.9 °C 1024.3 hPa SW 19.3 km/h 13.8 km/h 84 % 0 mm
02:04 8.5 °C 6.1 °C 1023.9 hPa SW 29.6 km/h 18 km/h 85 % 0 mm
02:09 8.4 °C 6 °C 1024.3 hPa SSW 27.4 km/h 18.5 km/h 85 % 0 mm
02:14 8.3 °C 5.9 °C 1024.3 hPa North 24.1 km/h 10.5 km/h 85 % 0 mm
02:19 8.2 °C 5.8 °C 1024.3 hPa SSW 24.1 km/h 12.2 km/h 85 % 0 mm
02:24 8.2 °C 6 °C 1024.3 hPa SSW 27.8 km/h 15.8 km/h 86 % 0 mm
02:29 8.2 °C 6.2 °C 1024.3 hPa SSW 18.5 km/h 11.7 km/h 87 % 0 mm
02:34 8.2 °C 6.2 °C 1024.3 hPa SW 20.9 km/h 15.8 km/h 87 % 0 mm
02:39 8.3 °C 6.2 °C 1024.3 hPa SSW 22.2 km/h 11.9 km/h 87 % 0 mm
02:44 8.3 °C 6.3 °C 1024.6 hPa SSW 22.2 km/h 14.2 km/h 87 % 0 mm
02:49 8.4 °C 6.2 °C 1024.6 hPa SSW 22.2 km/h 18.7 km/h 86 % 0 mm
02:54 8.4 °C 6.2 °C 1024.6 hPa SSW 20.4 km/h 11.7 km/h 86 % 0 mm
02:59 8.4 °C 6.2 °C 1024.6 hPa SSW 18.5 km/h 17.4 km/h 86 % 0 mm
03:04 8.4 °C 6.1 °C 1024.6 hPa SSW 27.8 km/h 12.1 km/h 85 % 0 mm
03:09 8.4 °C 6 °C 1024.6 hPa SSW 18.5 km/h 12.9 km/h 85 % 0 mm
03:14 8.3 °C 5.9 °C 1024.6 hPa SSW 22.2 km/h 12.1 km/h 85 % 0 mm
03:19 8.2 °C 5.8 °C 1024.6 hPa SSW 24.1 km/h 14 km/h 85 % 0 mm
03:24 8.1 °C 5.9 °C 1024.6 hPa SW 14.8 km/h 12.7 km/h 86 % 0 mm
03:29 8 °C 5.8 °C 1024.9 hPa SSW 18.5 km/h 16.3 km/h 86 % 0 mm
03:34 7.9 °C 5.7 °C 1024.9 hPa SW 25.9 km/h 15.6 km/h 86 % 0 mm
03:39 7.9 °C 5.7 °C 1024.9 hPa North 20.4 km/h 13.2 km/h 86 % 0 mm
03:44 7.8 °C 5.6 °C 1024.9 hPa SSW 18.5 km/h 11.3 km/h 86 % 0 mm
03:49 7.8 °C 5.6 °C 1024.9 hPa SW 16.7 km/h 13.4 km/h 86 % 0 mm
03:54 7.7 °C 5.5 °C 1024.9 hPa SW 20.4 km/h 14.3 km/h 86 % 0 mm
03:59 7.7 °C 5.5 °C 1024.9 hPa SW 18.5 km/h 10 km/h 86 % 0 mm
04:04 7.7 °C 5.5 °C 1024.9 hPa SW 18.5 km/h 10 km/h 86 % 0 mm
04:09 7.6 °C 5.2 °C 1024.9 hPa SSW 18.5 km/h 12.6 km/h 85 % 0 mm
04:14 7.6 °C 5.2 °C 1024.9 hPa SW 22.2 km/h 14.6 km/h 85 % 0 mm
04:19 7.6 °C 5.2 °C 1024.9 hPa SW 18.5 km/h 15 km/h 85 % 0 mm
04:24 7.6 °C 5.2 °C 1024.9 hPa SW 24.1 km/h 12.9 km/h 85 % 0 mm
04:29 7.7 °C 5.1 °C 1024.9 hPa SW 18.5 km/h 14.2 km/h 84 % 0 mm
04:34 7.7 °C 5.1 °C 1025.3 hPa SSW 22.2 km/h 11.4 km/h 84 % 0 mm
04:39 7.6 °C 5.1 °C 1025.3 hPa SSW 20.9 km/h 16.9 km/h 84 % 0 mm
04:44 7.6 °C 5.1 °C 1025.3 hPa SW 18.5 km/h 14 km/h 84 % 0 mm
04:49 7.7 °C 4.9 °C 1025.3 hPa SSW 19.3 km/h 13.4 km/h 83 % 0 mm
04:54 7.6 °C 5 °C 1025.3 hPa SW 20.9 km/h 15 km/h 84 % 0 mm
04:59 7.5 °C 4.8 °C 1025.3 hPa SW 20.4 km/h 12.9 km/h 83 % 0 mm
05:04 7.5 °C 4.8 °C 1025.3 hPa SW 27.8 km/h 17.2 km/h 83 % 0 mm
05:09 7.5 °C 4.8 °C 1025.3 hPa SW 24.1 km/h 18.3 km/h 83 % 0 mm
05:14 7.4 °C 4.7 °C 1025.3 hPa SSW 20.4 km/h 10.9 km/h 83 % 0 mm
05:19 7.4 °C 4.7 °C 1025.6 hPa SSW 22.2 km/h 14.5 km/h 83 % 0 mm
05:24 7.4 °C 4.7 °C 1025.6 hPa North 22.2 km/h 16.3 km/h 83 % 0 mm
05:29 7.4 °C 4.6 °C 1025.6 hPa SSW 18.5 km/h 13.5 km/h 82 % 0 mm
05:34 7.5 °C 4.6 °C 1025.6 hPa North 16.7 km/h 12.4 km/h 82 % 0 mm
05:39 7.5 °C 4.6 °C 1026 hPa SSW 22.2 km/h 13.5 km/h 82 % 0 mm
05:44 7.6 °C 4.7 °C 1026 hPa South 20.9 km/h 16.4 km/h 82 % 0 mm
05:49 7.7 °C 4.6 °C 1026 hPa SSW 24.1 km/h 14.6 km/h 81 % 0 mm
05:54 7.7 °C 4.7 °C 1026 hPa SSW 22.2 km/h 14.2 km/h 81 % 0 mm
05:59 7.7 °C 4.7 °C 1026.3 hPa SSW 29.6 km/h 15.3 km/h 81 % 0 mm
06:04 7.7 °C 4.6 °C 1026.3 hPa North 13 km/h 10.6 km/h 81 % 0 mm
06:09 7.5 °C 4.4 °C 1026.3 hPa SSW 18.5 km/h 15 km/h 81 % 0 mm
06:14 7.3 °C 4.3 °C 1026.3 hPa North 20.4 km/h 14.5 km/h 81 % 0 mm
06:19 7.2 °C 4.3 °C 1026.3 hPa SSW 17.7 km/h 14.3 km/h 82 % 0 mm
06:24 7.2 °C 4.3 °C 1026.3 hPa SSW 13 km/h 9.7 km/h 82 % 0 mm
06:29 7.1 °C 4.4 °C 1026.3 hPa North 18.5 km/h 11.6 km/h 83 % 0 mm
06:34 6.9 °C 4.3 °C 1026.6 hPa SSW 16.7 km/h 10.6 km/h 83 % 0 mm
06:39 6.9 °C 4.3 °C 1026.6 hPa SSW 16.7 km/h 12.1 km/h 83 % 0 mm
06:44 6.9 °C 4.2 °C 1026.6 hPa North 18.5 km/h 10.5 km/h 83 % 0 mm
06:49 6.8 °C 4.2 °C 1026.6 hPa SSW 14.8 km/h 9.7 km/h 83 % 0 mm
06:54 6.7 °C 4.2 °C 1026.6 hPa North 18.5 km/h 9.8 km/h 84 % 0 mm
06:59 6.7 °C 4.2 °C 1027 hPa SSW 14.8 km/h 10.8 km/h 84 % 0 mm
07:04 6.7 °C 4.2 °C 1027 hPa SSW 18.5 km/h 10.3 km/h 84 % 0 mm
07:09 6.7 °C 4.2 °C 1027.3 hPa North 13 km/h 10.6 km/h 84 % 0 mm
07:11 6.7 °C 4.2 °C 1027.3 hPa SSW 18.5 km/h 8.5 km/h 84 % 0 mm
07:44 6.9 °C 4.4 °C 1027.7 hPa North 18.5 km/h 18.5 km/h 84 % 0 mm
07:49 7 °C 4.3 °C 1027.7 hPa SW 18.5 km/h 12.9 km/h 83 % 0 mm
07:54 7 °C 4.3 °C 1027.7 hPa SSW 14.5 km/h 11.6 km/h 83 % 0 mm
07:59 6.9 °C 4.3 °C 1028 hPa SSW 16.7 km/h 7.9 km/h 83 % 0 mm
08:04 6.9 °C 4.3 °C 1028 hPa SSW 13 km/h 11.9 km/h 83 % 0 mm
08:09 6.9 °C 4.4 °C 1028 hPa SSW 14.8 km/h 10.5 km/h 84 % 0 mm
08:14 7 °C 4.3 °C 1028 hPa SSW 16.1 km/h 12.4 km/h 83 % 0 mm
08:19 7.1 °C 4.4 °C 1028 hPa SSW 14.8 km/h 9.2 km/h 83 % 0 mm
08:24 7.2 °C 4.5 °C 1028.3 hPa SSW 14.8 km/h 12.7 km/h 83 % 0 mm
08:29 7.3 °C 4.6 °C 1028.3 hPa SSW 14.8 km/h 9.2 km/h 83 % 0 mm
08:34 7.4 °C 4.7 °C 1028.3 hPa North 18.5 km/h 11.7 km/h 83 % 0 mm
08:39 7.5 °C 4.6 °C 1028.3 hPa SW 14.8 km/h 11.1 km/h 82 % 0 mm
08:44 7.6 °C 4.7 °C 1028.7 hPa North 18.5 km/h 18.5 km/h 82 % 0 mm
08:49 7.8 °C 4.7 °C 1028.7 hPa SSW 18.5 km/h 9.5 km/h 81 % 0 mm
08:54 7.9 °C 4.9 °C 1028.7 hPa SSW 18.5 km/h 12.6 km/h 81 % 0 mm
08:59 8.1 °C 5 °C 1028.7 hPa South 16.7 km/h 10.1 km/h 81 % 0 mm
09:04 8.2 °C 4.9 °C 1028.7 hPa SSW 22.2 km/h 14 km/h 80 % 0 mm
09:09 8.3 °C 5.1 °C 1029 hPa SW 18.5 km/h 14 km/h 80 % 0 mm
09:14 8.4 °C 5.2 °C 1029 hPa SW 24.1 km/h 16.9 km/h 80 % 0 mm
09:19 8.5 °C 5.1 °C 1029 hPa SSW 19.3 km/h 14.5 km/h 79 % 0 mm
09:24 8.6 °C 5.3 °C 1029 hPa SSW 20.4 km/h 14 km/h 80 % 0 mm
09:29 8.7 °C 5.4 °C 1029.3 hPa SSW 18.5 km/h 12.6 km/h 80 % 0 mm
09:34 8.8 °C 5.6 °C 1029.3 hPa SSW 16.7 km/h 14.2 km/h 80 % 0 mm
09:39 8.9 °C 5.7 °C 1029.3 hPa South 20.4 km/h 12.4 km/h 80 % 0 mm
09:44 9 °C 5.6 °C 1029.3 hPa North 20.4 km/h 13 km/h 79 % 0 mm
09:49 9.2 °C 5.8 °C 1029.3 hPa SSW 24.1 km/h 17.5 km/h 79 % 0 mm
09:54 9.4 °C 5.9 °C 1029.3 hPa North 22.2 km/h 14 km/h 79 % 0 mm
09:59 9.6 °C 5.9 °C 1029.3 hPa North 14.8 km/h 14.2 km/h 78 % 0 mm
10:04 9.8 °C 6.1 °C 1029.3 hPa South 18.5 km/h 12.2 km/h 78 % 0 mm
10:09 9.9 °C 6.2 °C 1029.3 hPa SSW 18.5 km/h 14.5 km/h 78 % 0 mm
10:14 9.9 °C 6.1 °C 1029.7 hPa South 22.2 km/h 10.1 km/h 77 % 0 mm
10:19 9.9 °C 6.1 °C 1029.7 hPa North 22.2 km/h 15.1 km/h 77 % 0 mm
10:24 10 °C 6.2 °C 1029.7 hPa North 27.4 km/h 21.7 km/h 77 % 0 mm
10:29 10.1 °C 6.2 °C 1029.7 hPa South 24.1 km/h 17.2 km/h 77 % 0 mm
10:34 10.2 °C 6.3 °C 1029.7 hPa South 18.5 km/h 13 km/h 77 % 0 mm
10:39 10.2 °C 6.4 °C 1029.7 hPa South 18.5 km/h 10.3 km/h 77 % 0 mm
10:44 10.3 °C 6.5 °C 1029.7 hPa South 18.5 km/h 11.7 km/h 77 % 0 mm
10:49 10.3 °C 6.5 °C 1029.7 hPa SSE 18.5 km/h 14.3 km/h 77 % 0 mm
10:54 10.4 °C 6.6 °C 1029.7 hPa South 18.5 km/h 13 km/h 77 % 0 mm
10:59 10.6 °C 6.7 °C 1029.7 hPa SSW 18.5 km/h 18.2 km/h 77 % 0 mm
11:04 10.6 °C 6.7 °C 1029.7 hPa South 16.7 km/h 10.5 km/h 77 % 0 mm
11:09 10.6 °C 6.6 °C 1029.7 hPa South 20.4 km/h 8.9 km/h 76 % 0 mm
11:14 10.8 °C 6.5 °C 1029.7 hPa South 25.9 km/h 14.5 km/h 75 % 0 mm
11:19 10.8 °C 6.6 °C 1029.7 hPa North 22.2 km/h 14.5 km/h 75 % 0 mm
11:24 10.9 °C 6.6 °C 1029.7 hPa South 24.1 km/h 16.3 km/h 75 % 0 mm
11:29 10.9 °C 6.7 °C 1029.7 hPa SSE 22.2 km/h 17.9 km/h 75 % 0 mm
11:34 11.2 °C 6.9 °C 1029.7 hPa SSE 20.4 km/h 17.2 km/h 75 % 0 mm
11:39 11.4 °C 6.6 °C 1029.7 hPa South 18.5 km/h 14.5 km/h 72 % 0 mm
11:44 11.4 °C 6.3 °C 1029.7 hPa South 11.3 km/h 7.7 km/h 71 % 0 mm
11:49 11.2 °C 5.9 °C 1029.7 hPa South 27.8 km/h 13.4 km/h 70 % 0 mm
11:54 11.3 °C 6.2 °C 1029.7 hPa SSE 24.1 km/h 13.2 km/h 71 % 0 mm
11:59 11.5 °C 6.4 °C 1029.7 hPa South 20.4 km/h 14.5 km/h 71 % 0 mm
12:04 11.6 °C 6.1 °C 1029.7 hPa SSW 24.1 km/h 14.2 km/h 69 % 0 mm
12:09 11.5 °C 6.4 °C 1029.7 hPa South 20.9 km/h 16.4 km/h 71 % 0 mm
12:14 11.4 °C 5.9 °C 1029.7 hPa SSE 22.2 km/h 13.2 km/h 69 % 0 mm
12:19 11.6 °C 6.3 °C 1029.3 hPa South 18.5 km/h 12.9 km/h 70 % 0 mm
12:24 11.7 °C 6.2 °C 1029.3 hPa SSW 22.2 km/h 16.1 km/h 69 % 0 mm
12:29 11.7 °C 6.4 °C 1029.3 hPa SSE 27.8 km/h 14.5 km/h 70 % 0 mm
12:34 11.7 °C 6.4 °C 1029.3 hPa South 20.9 km/h 18.2 km/h 70 % 0 mm
12:39 11.6 °C 6.1 °C 1029.3 hPa South 24.1 km/h 15.3 km/h 69 % 0 mm
12:44 11.7 °C 6.6 °C 1029.3 hPa South 18.5 km/h 13.4 km/h 71 % 0 mm
12:49 11.8 °C 6.5 °C 1029 hPa South 20.4 km/h 12.1 km/h 70 % 0 mm
12:54 11.8 °C 6.5 °C 1029 hPa North 18.5 km/h 10.6 km/h 70 % 0 mm
12:59 11.8 °C 6.3 °C 1029 hPa South 22.5 km/h 16.4 km/h 69 % 0 mm
13:04 11.9 °C 6.4 °C 1029 hPa SSW 18.5 km/h 11.4 km/h 69 % 0 mm
13:09 12.2 °C 6.7 °C 1029 hPa SE 18.5 km/h 12.9 km/h 69 % 0 mm
13:14 12.2 °C 6.3 °C 1029 hPa South 22.2 km/h 14.8 km/h 67 % 0 mm
13:19 12.1 °C 6.4 °C 1028.7 hPa South 20.4 km/h 10.5 km/h 68 % 0 mm
13:24 12.2 °C 6.3 °C 1028.7 hPa North 25.9 km/h 14.3 km/h 67 % 0 mm
13:29 12.2 °C 6.7 °C 1028.7 hPa South 18.5 km/h 11.9 km/h 69 % 0 mm
13:34 12.2 °C 6.7 °C 1028.7 hPa South 18.5 km/h 14.6 km/h 69 % 0 mm
13:39 12.3 °C 6.6 °C 1028.7 hPa SSW 22.2 km/h 15.6 km/h 68 % 0 mm
13:44 12.3 °C 6.4 °C 1028.7 hPa South 29.6 km/h 16.1 km/h 67 % 0 mm
13:49 12.4 °C 6.2 °C 1028.7 hPa SSE 20.4 km/h 15 km/h 66 % 0 mm
13:54 12.4 °C 6.4 °C 1028.3 hPa SSW 18.5 km/h 15.8 km/h 67 % 0 mm
13:59 12.4 °C 6.2 °C 1028.3 hPa South 24.1 km/h 16.7 km/h 66 % 0 mm
14:04 12.5 °C 6.6 °C 1028.7 hPa SSE 19.3 km/h 14 km/h 67 % 0 mm
14:09 12.5 °C 6.3 °C 1028.3 hPa South 18.5 km/h 12.4 km/h 66 % 0 mm
14:14 12.4 °C 6.3 °C 1028.3 hPa South 29.6 km/h 17.2 km/h 66 % 0 mm
14:19 12.4 °C 6.5 °C 1028.3 hPa SSE 14.8 km/h 6.9 km/h 67 % 0 mm
14:24 12.5 °C 6.1 °C 1028.3 hPa South 20.9 km/h 15 km/h 65 % 0 mm
14:29 12.6 °C 6.4 °C 1028.3 hPa SSE 16.7 km/h 12.7 km/h 66 % 0 mm
14:34 12.7 °C 6.5 °C 1028.7 hPa SSE 16.7 km/h 13.2 km/h 66 % 0 mm
14:39 12.6 °C 6 °C 1028.3 hPa North 16.1 km/h 14.2 km/h 64 % 0 mm
14:44 12.7 °C 6.1 °C 1028.7 hPa SSW 20.4 km/h 16.7 km/h 64 % 0 mm
14:49 12.6 °C 5.9 °C 1028.7 hPa South 24.1 km/h 13.4 km/h 64 % 0 mm
14:54 12.4 °C 5.8 °C 1028.7 hPa South 16.7 km/h 11.1 km/h 64 % 0 mm
14:59 12.4 °C 6.3 °C 1028.7 hPa South 14.5 km/h 9.3 km/h 66 % 0 mm
15:04 12.6 °C 6.4 °C 1028.7 hPa South 18.5 km/h 13.4 km/h 66 % 0 mm
15:09 12.6 °C 6.2 °C 1028.7 hPa SSE 18.5 km/h 11.6 km/h 65 % 0 mm
15:14 12.6 °C 6.2 °C 1028.7 hPa SSE 18.5 km/h 8.9 km/h 65 % 0 mm
15:19 12.7 °C 6.3 °C 1028.7 hPa SSE 17.7 km/h 10.3 km/h 65 % 0 mm
15:24 12.7 °C 6.5 °C 1028.7 hPa SSE 13 km/h 7.7 km/h 66 % 0 mm
15:29 12.7 °C 6.5 °C 1028.7 hPa SSE 14.8 km/h 8 km/h 66 % 0 mm
15:34 12.6 °C 6.2 °C 1028.7 hPa South 16.7 km/h 9.7 km/h 65 % 0 mm
15:39 12.5 °C 6.1 °C 1028.7 hPa SSE 13 km/h 11.1 km/h 65 % 0 mm
15:44 12.5 °C 6.1 °C 1028.7 hPa South 16.1 km/h 11.1 km/h 65 % 0 mm
15:49 12.5 °C 5.9 °C 1028.7 hPa South 18.5 km/h 12.1 km/h 64 % 0 mm
15:54 12.5 °C 6.1 °C 1028.7 hPa South 17.7 km/h 10.8 km/h 65 % 0 mm
15:59 12.4 °C 6 °C 1028.7 hPa South 18.5 km/h 8.7 km/h 65 % 0 mm
16:04 12.3 °C 5.9 °C 1028.7 hPa North 16.7 km/h 11.7 km/h 65 % 0 mm
16:09 12.3 °C 5.9 °C 1028.7 hPa North 13 km/h 4.8 km/h 65 % 0 mm
16:14 12.3 °C 6.1 °C 1028.7 hPa South 20.9 km/h 11.9 km/h 66 % 0 mm
16:19 12.2 °C 6 °C 1028.7 hPa South 13 km/h 6 km/h 66 % 0 mm
16:24 12.1 °C 5.9 °C 1029 hPa South 16.7 km/h 10.5 km/h 66 % 0 mm
16:29 12 °C 5.8 °C 1028.7 hPa South 9.3 km/h 9.7 km/h 66 % 0 mm
16:34 12 °C 6.1 °C 1028.7 hPa South 11.1 km/h 6.6 km/h 67 % 0 mm
16:39 11.9 °C 6.2 °C 1029 hPa South 13 km/h 5.8 km/h 68 % 0 mm
16:44 11.8 °C 6.1 °C 1028.7 hPa South 5.6 km/h 2.3 km/h 68 % 0 mm
16:49 11.7 °C 6.2 °C 1028.7 hPa South 6.4 km/h 3.7 km/h 69 % 0 mm
16:54 11.6 °C 6.3 °C 1028.7 hPa South 13 km/h 6 km/h 70 % 0 mm
16:59 11.4 °C 6.2 °C 1028.7 hPa South 8 km/h 6 km/h 70 % 0 mm
17:04 11.2 °C 6.1 °C 1028.7 hPa South 5.6 km/h 5.6 km/h 71 % 0 mm
17:09 10.9 °C 6.1 °C 1028.7 hPa North 5.6 km/h 7.2 km/h 72 % 0 mm
17:14 10.7 °C 6 °C 1028.7 hPa South 5.6 km/h 2.9 km/h 73 % 0 mm
17:19 10.5 °C 5.9 °C 1028.7 hPa South 3.7 km/h   73 % 0 mm
17:24 10.4 °C 5.8 °C 1029 hPa South 3.7 km/h 0.6 km/h 73 % 0 mm
17:29 10.2 °C 5.7 °C 1029 hPa Calm     74 % 0 mm
17:34 10 °C 5.6 °C 1029 hPa South 3.7 km/h 2.3 km/h 74 % 0 mm
17:39 9.8 °C 5.6 °C 1029 hPa South 5.6 km/h 3.2 km/h 75 % 0 mm
17:44 9.6 °C 5.3 °C 1029 hPa South 7.4 km/h 3.7 km/h 75 % 0 mm
17:49 9.4 °C 5.4 °C 1029 hPa North 5.6 km/h 3.4 km/h 76 % 0 mm
17:54 9.2 °C 5.2 °C 1029 hPa North 3.7 km/h   76 % 0 mm
17:59 9.1 °C 5.1 °C 1029 hPa South 3.7 km/h 1.6 km/h 76 % 0 mm
18:04 8.9 °C 5.8 °C 1029 hPa South 6.4 km/h 3.9 km/h 81 % 0 mm
18:09 8.8 °C 5.2 °C 1029 hPa South 3.7 km/h 0.6 km/h 78 % 0 mm
18:14 8.7 °C 5.1 °C 1029 hPa South 3.7 km/h 1.8 km/h 78 % 0 mm
18:19 8.6 °C 5.2 °C 1029 hPa South 1.9 km/h 0.3 km/h 79 % 0 mm
18:24 8.5 °C 5.1 °C 1029 hPa South 1.6 km/h 0.3 km/h 79 % 0 mm
18:29 8.3 °C 5.1 °C 1029 hPa South 5.6 km/h 6.9 km/h 80 % 0 mm
18:34 8.2 °C 5.2 °C 1029 hPa South 5.6 km/h 3.9 km/h 81 % 0 mm
18:39 8.2 °C 5.2 °C 1029.3 hPa Calm     81 % 0 mm
18:44 8.1 °C 5 °C 1029.3 hPa North 3.2 km/h 0.2 km/h 81 % 0 mm
18:49 7.7 °C 4.8 °C 1029.3 hPa South 5.6 km/h 4.5 km/h 82 % 0 mm
18:54 7.6 °C 5.1 °C 1029.3 hPa North 7.4 km/h 5 km/h 84 % 0 mm
18:59 7.7 °C 5.1 °C 1029.3 hPa Calm     84 % 0 mm
19:04 7.6 °C 5 °C 1029.3 hPa Calm     84 % 0 mm
19:09 7.4 °C 4.7 °C 1029.7 hPa Calm     83 % 0 mm
19:14 7.2 °C 4.7 °C 1029.7 hPa South 3.7 km/h 3.1 km/h 84 % 0 mm
19:19 7.2 °C 5 °C 1029.7 hPa South 3.7 km/h 2.3 km/h 86 % 0 mm
19:24 7.1 °C 4.8 °C 1029.7 hPa Calm     85 % 0 mm
19:29 7 °C 4.8 °C 1029.7 hPa South 1.6 km/h   86 % 0 mm
19:34 6.9 °C 4.7 °C 1029.7 hPa South 6.4 km/h 4.3 km/h 86 % 0 mm
19:39 6.8 °C 4.6 °C 1029.7 hPa South 5.6 km/h 5 km/h 86 % 0 mm
19:44 6.8 °C 4.8 °C 1029.7 hPa North 3.7 km/h 1.9 km/h 87 % 0 mm
19:49 6.8 °C 4.8 °C 1029.7 hPa South 3.7 km/h 2.7 km/h 87 % 0 mm
19:54 6.8 °C 4.8 °C 1029.7 hPa North 5.6 km/h 3.5 km/h 87 % 0 mm
19:59 6.8 °C 4.8 °C 1030 hPa North 3.7 km/h 1.3 km/h 87 % 0 mm
20:04 6.7 °C 4.7 °C 1030 hPa SSE 5.6 km/h 3.1 km/h 87 % 0 mm
20:09 6.7 °C 4.7 °C 1030 hPa South 3.7 km/h 1.1 km/h 87 % 0 mm
20:14 6.7 °C 4.9 °C 1030 hPa SSE 5.6 km/h 2.4 km/h 88 % 0 mm
20:19 6.8 °C 4.9 °C 1030 hPa South 5.6 km/h 3.9 km/h 88 % 0 mm
20:24 6.8 °C 5 °C 1030 hPa South 5.6 km/h 3.7 km/h 88 % 0 mm
20:29 6.9 °C 5.1 °C 1030 hPa South 5.6 km/h 2.9 km/h 88 % 0 mm
20:34 6.9 °C 5.1 °C 1030 hPa South 3.7 km/h 0.8 km/h 88 % 0 mm
20:39 6.8 °C 4.8 °C 1030 hPa South 3.7 km/h 1.6 km/h 87 % 0 mm
20:44 6.7 °C 4.7 °C 1030 hPa South 3.7 km/h 2.1 km/h 87 % 0 mm
20:49 6.5 °C 4.3 °C 1030 hPa South 3.7 km/h   86 % 0 mm
20:54 6.3 °C 4.3 °C 1030.4 hPa Calm     87 % 0 mm
20:59 6.2 °C 4.2 °C 1030.4 hPa Calm     87 % 0 mm
21:04 6 °C 4 °C 1030 hPa Calm     87 % 0 mm
21:09 5.8 °C 3.8 °C 1030 hPa Calm     87 % 0 mm
21:14 5.5 °C 3.5 °C 1030.4 hPa Calm   0.2 km/h 87 % 0 mm
21:19 5.4 °C 3.6 °C 1030.4 hPa South 3.7 km/h 2.1 km/h 88 % 0 mm
21:24 5.2 °C 3.3 °C 1030.4 hPa Calm     88 % 0 mm
21:29 4.9 °C 3.1 °C 1030.4 hPa Calm     88 % 0 mm
21:34 4.8 °C 3.1 °C 1030.4 hPa Calm     89 % 0 mm
21:39 4.7 °C 3 °C 1030.4 hPa Calm     89 % 0 mm
21:44 4.5 °C 2.8 °C 1030.4 hPa Calm   0.3 km/h 89 % 0 mm
21:49 4.4 °C 2.7 °C 1030.4 hPa Calm     89 % 0 mm
21:54 4.3 °C 2.6 °C 1030.7 hPa Calm     89 % 0 mm
21:59 4.2 °C 2.7 °C 1030.7 hPa Calm     90 % 0 mm
22:04 4.1 °C 2.6 °C 1030.7 hPa Calm     90 % 0 mm
22:09 4.2 °C 2.8 °C 1030.7 hPa South 3.2 km/h 2.4 km/h 91 % 0 mm
22:14 4.3 °C 2.9 °C 1030.7 hPa South 3.7 km/h 2.7 km/h 91 % 0 mm
22:19 4.4 °C 3.1 °C 1030.7 hPa South 1.9 km/h   91 % 0 mm
22:24 4.3 °C 3 °C 1030.7 hPa Calm     91 % 0 mm
22:29 4.2 °C 2.7 °C 1030.4 hPa Calm     90 % 0 mm
22:34 4 °C 2.5 °C 1030.7 hPa Calm     90 % 0 mm
22:39 3.7 °C 2.3 °C 1030.4 hPa North 3.7 km/h 2.6 km/h 91 % 0 mm
22:44 3.6 °C 2.3 °C 1030.4 hPa South 5.6 km/h 3.5 km/h 91 % 0 mm
22:49 3.8 °C 2.6 °C 1030.7 hPa Calm     92 % 0 mm
22:54 3.9 °C 2.7 °C 1030.7 hPa Calm     92 % 0 mm
22:59 3.8 °C 2.5 °C 1030.4 hPa Calm     91 % 0 mm
23:04 3.7 °C 2.6 °C 1030.4 hPa South 1.9 km/h   92 % 0 mm
23:09 3.6 °C 2.4 °C 1030.4 hPa Calm     92 % 0 mm
23:14 3.5 °C 2.3 °C 1030.7 hPa North 1.9 km/h   92 % 0 mm
23:19 3.6 °C 2.4 °C 1030.7 hPa South 3.7 km/h 2.4 km/h 92 % 0 mm
23:24 3.7 °C 2.7 °C 1030.7 hPa South 3.7 km/h   93 % 0 mm
23:29 3.8 °C 2.7 °C 1030.4 hPa Calm     93 % 0 mm
23:34 3.7 °C 2.6 °C 1030.4 hPa Calm     92 % 0 mm
23:39 3.6 °C 2.6 °C 1030.4 hPa Calm     93 % 0 mm
23:44 3.6 °C 2.6 °C 1030.4 hPa Calm     93 % 0 mm
23:49 3.6 °C 2.6 °C 1030.4 hPa Calm     93 % 0 mm
23:54 3.5 °C 2.3 °C 1030.4 hPa Calm     92 % 0 mm
23:59 3.6 °C 2.6 °C 1030.4 hPa Calm     93 % 0 mm
Ararat Weather
Compliments of Weather Underground - 2.25 mb
Click here to send mail.


ABOUT

Live weather data from Ararat, Victoria, Australia, 3377
Data uploaded from Cumulus every 5 minutes to Weather Underground.
This site then downloads the raw data for formatting and display.
Metric and imperial data can be displayed. Graphs and historical data available.
Includes Sun and Moon times and rain image live from BOM.

Check out Ararat Weather on Facebook, Twitter and Google +

Help support ongoing costs by checking out the ads





Follow @AraratWeather